Time,TemperatureF,DewpointF,PressureIn,WindDirection,WindDirectionDegrees,WindSpeedMPH,WindSpeedGustMPH,Humidity,HourlyPrecipIn,Conditions,Clouds,dailyrainin,SolarRadiationWatts/m^2,SoftwareType,DateUTC
2014-01-13 00:00:00,40.7,32.7,30.21,NNW,340,3.0,3.0,73,0.00,,SCT,0.00,0.00,VWS V14.01,2014-01-13 05:00:00,
2014-01-13 00:01:00,40.2,32.6,30.21,WSW,240,0.0,4.0,74,0.00,,SCT,0.00,0.00,VWS V14.01,2014-01-13 05:01:00,
2014-01-13 00:06:00,40.5,32.5,30.20,WSW,240,0.0,4.0,73,0.00,,SCT,0.00,0.00,VWS V14.01,2014-01-13 05:06:00,
2014-01-13 00:11:00,40.3,32.7,30.21,SW,227,5.0,5.0,74,0.00,,SCT,0.00,0.00,VWS V14.01,2014-01-13 05:11:00,
2014-01-13 00:16:00,40.2,32.6,30.21,SSW,194,0.0,5.0,74,0.00,,SCT,0.00,0.00,VWS V14.01,2014-01-13 05:16:00,
2014-01-13 00:21:00,40.3,32.7,30.21,SSW,194,0.0,5.0,74,0.00,,SCT,0.00,0.00,VWS V14.01,2014-01-13 05:21:00,
2014-01-13 00:26:00,39.8,32.2,30.21,SSW,194,3.0,5.0,74,0.00,,SCT,0.00,0.00,VWS V14.01,2014-01-13 05:26:00,
2014-01-13 00:31:00,39.6,32.3,30.20,SSW,194,1.0,5.0,75,0.00,,SCT,0.00,0.00,VWS V14.01,2014-01-13 05:31:00,
2014-01-13 00:36:00,39.8,32.5,30.21,SSW,194,0.0,5.0,75,0.00,,SCT,0.00,0.00,VWS V14.01,2014-01-13 05:36:00,
2014-01-13 00:41:00,39.7,32.4,30.21,SSW,194,0.0,5.0,75,0.00,,SCT,0.00,0.00,VWS V14.01,2014-01-13 05:41:00,
2014-01-13 00:46:00,39.4,32.2,30.20,SSW,196,4.0,5.0,75,0.00,,SCT,0.00,0.00,VWS V14.01,2014-01-13 05:46:00,
2014-01-13 00:51:00,39.3,32.4,30.20,SSW,205,0.0,3.0,76,0.00,,SCT,0.00,0.00,VWS V14.01,2014-01-13 05:51:00,
2014-01-13 00:56:00,39.5,32.2,30.20,SSW,205,0.0,4.0,75,0.00,,SCT,0.00,0.00,VWS V14.01,2014-01-13 05:56:00,
2014-01-13 01:00:00,39.2,32.3,30.20,SSW,205,2.0,5.0,76,0.00,,SCT,0.00,0.00,VWS V14.01,2014-01-13 06:00:00,
2014-01-13 01:01:00,39.2,32.3,30.20,SSW,205,2.0,4.0,76,0.00,,SCT,0.00,0.00,VWS V14.01,2014-01-13 06:01:00,
2014-01-13 01:06:00,39.3,32.4,30.20,SSW,205,1.0,4.0,76,0.00,,SCT,0.00,0.00,VWS V14.01,2014-01-13 06:06:00,
2014-01-13 01:11:00,39.5,32.2,30.20,SSW,205,0.0,4.0,75,0.00,,SCT,0.00,0.00,VWS V14.01,2014-01-13 06:11:00,
2014-01-13 01:16:00,39.8,32.5,30.20,SSW,205,0.0,4.0,75,0.00,,SCT,0.00,0.00,VWS V14.01,2014-01-13 06:16:00,
2014-01-13 01:21:00,40.2,32.6,30.20,SSW,205,1.0,4.0,74,0.00,,SCT,0.00,0.00,VWS V14.01,2014-01-13 06:21:00,
2014-01-13 01:26:00,40.3,32.3,30.20,SSW,205,0.0,4.0,73,0.00,,SCT,0.00,0.00,VWS V14.01,2014-01-13 06:26:00,
2014-01-13 01:31:00,40.1,32.5,30.19,SSW,205,0.0,4.0,74,0.00,,SCT,0.00,0.00,VWS V14.01,2014-01-13 06:31:00,
2014-01-13 01:36:00,39.8,32.2,30.19,SSW,205,0.0,4.0,74,0.00,,SCT,0.00,0.00,VWS V14.01,2014-01-13 06:36:00,
2014-01-13 01:41:00,39.6,32.0,30.19,SSW,205,0.0,4.0,74,0.00,,SCT,0.00,0.00,VWS V14.01,2014-01-13 06:41:00,
2014-01-13 01:46:00,39.4,32.2,30.20,SSW,205,0.0,4.0,75,0.00,,SCT,0.00,0.00,VWS V14.01,2014-01-13 06:46:00,
2014-01-13 01:51:00,39.3,32.4,30.20,SSW,205,0.0,0.0,76,0.00,,SCT,0.00,0.00,VWS V14.01,2014-01-13 06:51:00,
2014-01-13 01:56:00,39.3,32.0,30.20,SSW,205,0.0,2.0,75,0.00,,SCT,0.00,0.00,VWS V14.01,2014-01-13 06:56:00,
2014-01-13 02:00:00,39.3,32.0,30.20,SSW,205,0.0,4.0,75,0.00,,SCT,0.00,0.00,VWS V14.01,2014-01-13 07:00:00,
2014-01-13 02:01:00,39.2,32.3,30.20,ESE,107,4.0,4.0,76,0.00,,SCT,0.00,0.00,VWS V14.01,2014-01-13 07:01:00,
2014-01-13 02:06:00,39.1,32.2,30.20,NNE,30,0.0,6.0,76,0.00,,SCT,0.00,0.00,VWS V14.01,2014-01-13 07:06:00,
2014-01-13 02:11:00,38.9,32.0,30.20,NNE,30,0.0,6.0,76,0.00,,SCT,0.00,0.00,VWS V14.01,2014-01-13 07:11:00,
2014-01-13 02:16:00,38.8,31.9,30.20,NNE,30,0.0,6.0,76,0.00,,SCT,0.00,0.00,VWS V14.01,2014-01-13 07:16:00,
2014-01-13 02:21:00,38.8,32.2,30.20,NNE,30,0.0,6.0,77,0.00,,SCT,0.00,0.00,VWS V14.01,2014-01-13 07:21:00,
2014-01-13 02:26:00,38.8,32.2,30.20,NNE,30,0.0,6.0,77,0.00,,SCT,0.00,0.00,VWS V14.01,2014-01-13 07:26:00,
2014-01-13 02:31:00,38.9,32.3,30.20,NNE,30,0.0,6.0,77,0.00,,SCT,0.00,0.00,VWS V14.01,2014-01-13 07:31:00,
2014-01-13 02:36:00,38.7,32.1,30.20,NNE,30,0.0,6.0,77,0.00,,SCT,0.00,0.00,VWS V14.01,2014-01-13 07:36:00,
2014-01-13 02:41:00,38.3,32.0,30.20,NNE,30,0.0,6.0,78,0.00,,SCT,0.00,0.00,VWS V14.01,2014-01-13 07:41:00,
2014-01-13 02:46:00,38.2,32.0,30.20,NNE,30,0.0,6.0,78,0.00,,SCT,0.00,0.00,VWS V14.01,2014-01-13 07:46:00,
2014-01-13 02:51:00,38.1,32.2,30.20,NNE,30,0.0,0.0,79,0.00,,SCT,0.00,0.00,VWS V14.01,2014-01-13 07:51:00,
2014-01-13 02:56:00,37.9,32.0,30.20,NNE,30,0.0,0.0,79,0.00,,SCT,0.00,0.00,VWS V14.01,2014-01-13 07:56:00,
2014-01-13 03:00:00,38.1,32.2,30.20,NNE,30,0.0,6.0,79,0.00,,SCT,0.00,0.00,VWS V14.01,2014-01-13 08:00:00,
2014-01-13 03:01:00,37.5,31.6,30.20,SW,223,1.0,5.0,79,0.00,,SCT,0.00,0.00,VWS V14.01,2014-01-13 08:01:00,
2014-01-13 03:06:00,37.1,31.5,30.20,SSW,207,0.0,5.0,80,0.00,,SCT,0.00,0.00,VWS V14.01,2014-01-13 08:06:00,
2014-01-13 03:11:00,37.1,31.5,30.20,SSW,207,0.0,5.0,80,0.00,,SCT,0.00,0.00,VWS V14.01,2014-01-13 08:11:00,
2014-01-13 03:16:00,37.0,31.7,30.20,SSW,207,0.0,5.0,81,0.00,,SCT,0.00,0.00,VWS V14.01,2014-01-13 08:16:00,
2014-01-13 03:21:00,37.0,31.7,30.20,SSW,207,0.0,5.0,81,0.00,,SCT,0.00,0.00,VWS V14.01,2014-01-13 08:21:00,
2014-01-13 03:26:00,37.0,31.7,30.19,SSW,207,0.0,5.0,81,0.00,,SCT,0.00,0.00,VWS V14.01,2014-01-13 08:26:00,
2014-01-13 03:31:00,37.1,32.1,30.19,SSW,207,0.0,5.0,82,0.00,,SCT,0.00,0.00,VWS V14.01,2014-01-13 08:31:00,
2014-01-13 03:36:00,37.1,32.1,30.19,SSW,207,0.0,5.0,82,0.00,,SCT,0.00,0.00,VWS V14.01,2014-01-13 08:36:00,
2014-01-13 03:41:00,37.2,32.2,30.19,SSW,207,0.0,5.0,82,0.00,,SCT,0.00,0.00,VWS V14.01,2014-01-13 08:41:00,
2014-01-13 03:46:00,37.3,32.0,30.20,SSW,207,0.0,5.0,81,0.00,,SCT,0.00,0.00,VWS V14.01,2014-01-13 08:46:00,
2014-01-13 03:51:00,37.4,32.1,30.19,SSW,207,0.0,0.0,81,0.00,,SCT,0.00,0.00,VWS V14.01,2014-01-13 08:51:00,
2014-01-13 03:56:00,37.7,32.4,30.19,SSW,207,0.0,2.0,81,0.00,,SCT,0.00,0.00,VWS V14.01,2014-01-13 08:56:00,
2014-01-13 04:00:00,37.4,32.1,30.19,SSW,207,0.0,5.0,81,0.00,,SCT,0.00,0.00,VWS V14.01,2014-01-13 09:00:00,
2014-01-13 04:01:00,37.8,32.2,30.19,SSW,207,0.0,2.0,80,0.00,,SCT,0.00,0.00,VWS V14.01,2014-01-13 09:01:00,
2014-01-13 04:06:00,37.9,32.0,30.19,SSW,207,0.0,2.0,79,0.00,,SCT,0.00,0.00,VWS V14.01,2014-01-13 09:06:00,
2014-01-13 04:11:00,38.0,32.1,30.19,SSW,207,0.0,2.0,79,0.00,,SCT,0.00,0.00,VWS V14.01,2014-01-13 09:11:00,
2014-01-13 04:16:00,38.2,32.3,30.19,SSW,207,0.0,2.0,79,0.00,,SCT,0.00,0.00,VWS V14.01,2014-01-13 09:16:00,
2014-01-13 04:21:00,38.3,32.4,30.19,SSW,207,0.0,2.0,79,0.00,,SCT,0.00,0.00,VWS V14.01,2014-01-13 09:21:00,
2014-01-13 04:26:00,38.2,32.3,30.19,SSW,207,0.0,2.0,79,0.00,,SCT,0.00,0.00,VWS V14.01,2014-01-13 09:26:00,
2014-01-13 04:31:00,38.2,32.0,30.19,SSW,207,0.0,2.0,78,0.00,,SCT,0.00,0.00,VWS V14.01,2014-01-13 09:31:00,
2014-01-13 04:36:00,38.2,32.0,30.19,SSW,207,0.0,2.0,78,0.00,,SCT,0.00,0.00,VWS V14.01,2014-01-13 09:36:00,
2014-01-13 04:41:00,38.1,32.2,30.19,SSW,207,0.0,2.0,79,0.00,,SCT,0.00,0.00,VWS V14.01,2014-01-13 09:41:00,
2014-01-13 04:46:00,38.0,32.1,30.19,SSW,207,0.0,2.0,79,0.00,,SCT,0.00,0.00,VWS V14.01,2014-01-13 09:46:00,
2014-01-13 04:51:00,38.0,32.1,30.19,SSW,207,0.0,0.0,79,0.00,,SCT,0.00,0.00,VWS V14.01,2014-01-13 09:51:00,
2014-01-13 04:56:00,37.9,32.0,30.18,SSW,207,0.0,0.0,79,0.00,,SCT,0.00,0.00,VWS V14.01,2014-01-13 09:56:00,
2014-01-13 05:00:00,37.9,32.0,30.19,SSW,207,0.0,2.0,79,0.00,,SCT,0.00,0.00,VWS V14.01,2014-01-13 10:00:00,
2014-01-13 05:01:00,38.0,32.1,30.19,SSW,207,0.0,0.0,79,0.00,,SCT,0.00,0.00,VWS V14.01,2014-01-13 10:01:00,
2014-01-13 05:06:00,38.1,32.2,30.19,SSW,207,0.0,0.0,79,0.00,,SCT,0.00,0.00,VWS V14.01,2014-01-13 10:06:00,
2014-01-13 05:11:00,38.3,32.0,30.19,NNW,340,2.0,3.0,78,0.00,,SCT,0.00,0.00,VWS V14.01,2014-01-13 10:11:00,
2014-01-13 05:16:00,38.3,32.0,30.19,NNW,340,0.0,3.0,78,0.00,,SCT,0.00,0.00,VWS V14.01,2014-01-13 10:16:00,
2014-01-13 05:20:00,38.2,32.0,30.19,NNW,340,0.0,3.0,78,0.00,,SCT,0.00,0.00,VWS V14.01,2014-01-13 10:20:00,
2014-01-13 05:25:00,38.2,32.0,30.19,NNW,340,0.0,3.0,78,0.00,,SCT,0.00,0.00,VWS V14.01,2014-01-13 10:25:00,
2014-01-13 05:30:00,38.2,32.0,30.19,NNW,340,0.0,3.0,78,0.00,,SCT,0.00,0.00,VWS V14.01,2014-01-13 10:30:00,
2014-01-13 05:35:00,38.2,32.0,30.19,NNW,340,0.0,3.0,78,0.00,,SCT,0.00,0.00,VWS V14.01,2014-01-13 10:35:00,
2014-01-13 05:40:00,38.3,32.0,30.19,SW,223,0.0,3.0,78,0.00,,SCT,0.00,0.00,VWS V14.01,2014-01-13 10:40:00,
2014-01-13 05:45:00,38.3,32.0,30.19,SW,223,0.0,3.0,78,0.00,,SCT,0.00,0.00,VWS V14.01,2014-01-13 10:45:00,
2014-01-13 05:50:00,38.0,31.8,30.20,SW,223,0.0,3.0,78,0.00,,SCT,0.00,0.00,VWS V14.01,2014-01-13 10:50:00,
2014-01-13 05:55:00,37.8,31.9,30.20,NNW,340,3.0,3.0,79,0.00,,SCT,0.00,0.00,VWS V14.01,2014-01-13 10:55:00,
2014-01-13 06:00:00,37.9,32.3,30.19,North,10,0.0,4.0,80,0.00,,SCT,0.00,0.00,VWS V14.01,2014-01-13 11:00:00,
2014-01-13 06:05:00,38.0,32.1,30.19,North,10,0.0,4.0,79,0.00,,SCT,0.00,0.00,VWS V14.01,2014-01-13 11:05:00,
2014-01-13 06:10:00,38.1,32.2,30.19,North,10,0.0,4.0,79,0.00,,SCT,0.00,0.00,VWS V14.01,2014-01-13 11:10:00,
2014-01-13 06:15:00,38.2,32.3,30.19,North,10,0.0,4.0,79,0.00,,SCT,0.00,0.00,VWS V14.01,2014-01-13 11:15:00,
2014-01-13 06:20:00,38.3,32.4,30.19,North,10,0.0,4.0,79,0.00,,SCT,0.00,0.00,VWS V14.01,2014-01-13 11:20:00,
2014-01-13 06:25:00,38.4,32.2,30.19,North,10,0.0,4.0,78,0.00,,SCT,0.00,0.00,VWS V14.01,2014-01-13 11:25:00,
2014-01-13 06:30:00,38.4,32.2,30.19,North,10,0.0,4.0,78,0.00,,SCT,0.00,0.00,VWS V14.01,2014-01-13 11:30:00,
2014-01-13 06:35:00,38.3,32.0,30.19,North,10,0.0,4.0,78,0.00,,SCT,0.00,0.00,VWS V14.01,2014-01-13 11:35:00,
2014-01-13 06:40:00,38.2,32.0,30.19,North,10,0.0,4.0,78,0.00,,SCT,0.00,0.00,VWS V14.01,2014-01-13 11:40:00,
2014-01-13 06:45:00,38.1,32.2,30.19,North,10,0.0,4.0,79,0.00,,SCT,0.00,0.00,VWS V14.01,2014-01-13 11:45:00,
2014-01-13 06:50:00,37.9,32.0,30.19,North,10,0.0,4.0,79,0.00,,SCT,0.00,0.00,VWS V14.01,2014-01-13 11:50:00,
2014-01-13 06:55:00,37.8,31.9,30.20,North,11,0.0,0.0,79,0.00,,SCT,0.00,0.00,VWS V14.01,2014-01-13 11:55:00,
2014-01-13 07:00:00,37.6,31.7,30.19,North,10,0.0,1.0,79,0.00,,SCT,0.00,0.00,VWS V14.01,2014-01-13 12:00:00,
2014-01-13 07:05:00,37.4,31.8,30.20,North,10,0.0,1.0,80,0.00,,SCT,0.00,0.00,VWS V14.01,2014-01-13 12:05:00,
2014-01-13 07:10:00,37.4,31.8,30.20,North,10,0.0,1.0,80,0.00,,SCT,0.00,0.00,VWS V14.01,2014-01-13 12:10:00,
2014-01-13 07:15:00,37.4,32.1,30.20,North,10,2.0,3.0,81,0.00,,SCT,0.00,0.00,VWS V14.01,2014-01-13 12:15:00,
2014-01-13 07:20:00,37.5,32.2,30.20,NNW,343,1.0,4.0,81,0.00,,SCT,0.00,0.00,VWS V14.01,2014-01-13 12:20:00,
2014-01-13 07:25:00,37.6,32.3,30.20,NNW,343,0.0,4.0,81,0.00,,SCT,0.00,0.00,VWS V14.01,2014-01-13 12:25:00,
2014-01-13 07:30:00,37.6,32.3,30.20,NNW,343,0.0,4.0,81,0.00,,SCT,0.00,0.00,VWS V14.01,2014-01-13 12:30:00,
2014-01-13 07:35:00,37.6,32.3,30.20,NNW,343,0.0,4.0,81,0.00,,SCT,0.00,0.00,VWS V14.01,2014-01-13 12:35:00,
2014-01-13 07:40:00,37.5,32.2,30.20,NNW,343,0.0,4.0,81,0.00,,SCT,0.00,7.00,VWS V14.01,2014-01-13 12:40:00,
2014-01-13 07:45:00,37.5,32.2,30.20,NNW,343,0.0,4.0,81,0.00,,SCT,0.00,9.00,VWS V14.01,2014-01-13 12:45:00,
2014-01-13 07:50:00,37.6,32.3,30.20,NNW,343,0.0,4.0,81,0.00,,SCT,0.00,11.00,VWS V14.01,2014-01-13 12:50:00,
2014-01-13 07:55:00,37.8,32.5,30.20,NNW,343,0.0,0.0,81,0.00,,SCT,0.00,12.00,VWS V14.01,2014-01-13 12:55:00,
2014-01-13 08:00:00,37.8,32.5,30.20,NNW,343,0.0,0.0,81,0.00,,SCT,0.00,16.00,VWS V14.01,2014-01-13 13:00:00,
2014-01-13 08:05:00,37.9,32.3,30.20,NNW,343,0.0,0.0,80,0.00,,SCT,0.00,21.00,VWS V14.01,2014-01-13 13:05:00,
2014-01-13 08:10:00,37.9,32.3,30.20,NNW,343,0.0,0.0,80,0.00,,SCT,0.00,26.00,VWS V14.01,2014-01-13 13:10:00,
2014-01-13 08:15:00,37.9,32.3,30.20,East,88,3.0,5.0,80,0.00,,SCT,0.00,86.00,VWS V14.01,2014-01-13 13:15:00,
2014-01-13 08:20:00,37.9,32.6,30.20,East,84,0.0,6.0,81,0.00,,SCT,0.00,95.00,VWS V14.01,2014-01-13 13:20:00,
2014-01-13 08:25:00,37.8,32.5,30.20,NNE,33,0.0,6.0,81,0.00,,SCT,0.00,76.00,VWS V14.01,2014-01-13 13:25:00,
2014-01-13 08:30:00,38.0,32.7,30.20,NNE,33,1.0,6.0,81,0.00,,SCT,0.00,125.00,VWS V14.01,2014-01-13 13:30:00,
2014-01-13 08:35:00,38.3,33.0,30.20,NNE,13,0.0,6.0,81,0.00,,SCT,0.00,144.00,VWS V14.01,2014-01-13 13:35:00,
2014-01-13 08:40:00,38.7,33.4,30.20,NNE,13,0.0,6.0,81,0.00,,SCT,0.00,167.00,VWS V14.01,2014-01-13 13:40:00,
2014-01-13 08:45:00,38.8,33.2,30.20,NNE,13,0.0,6.0,80,0.00,,SCT,0.00,190.00,VWS V14.01,2014-01-13 13:45:00,
2014-01-13 08:50:00,38.9,33.3,30.20,SE,126,1.0,6.0,80,0.00,,SCT,0.00,221.00,VWS V14.01,2014-01-13 13:50:00,
2014-01-13 08:55:00,39.1,33.5,30.20,East,96,4.0,5.0,80,0.00,,SCT,0.00,251.00,VWS V14.01,2014-01-13 13:55:00,
2014-01-13 09:00:00,39.5,33.8,30.20,East,93,1.0,5.0,80,0.00,,SCT,0.00,269.00,VWS V14.01,2014-01-13 14:00:00,
2014-01-13 09:05:00,40.1,34.4,30.20,East,93,0.0,5.0,80,0.00,,SCT,0.00,218.00,VWS V14.01,2014-01-13 14:05:00,
2014-01-13 09:10:00,40.6,34.6,30.19,East,93,1.0,5.0,79,0.00,,SCT,0.00,257.00,VWS V14.01,2014-01-13 14:10:00,
2014-01-13 09:15:00,41.1,36.3,30.19,ESE,117,1.0,5.0,83,0.00,,SCT,0.00,271.00,VWS V14.01,2014-01-13 14:15:00,
2014-01-13 09:20:00,41.6,35.3,30.19,SSW,201,0.0,5.0,78,0.00,,SCT,0.00,306.00,VWS V14.01,2014-01-13 14:20:00,
2014-01-13 09:25:00,42.0,36.0,30.19,SSW,200,0.0,5.0,79,0.00,,SCT,0.00,207.00,VWS V14.01,2014-01-13 14:25:00,
2014-01-13 09:30:00,42.3,35.3,30.19,SSE,166,2.0,5.0,76,0.00,,SCT,0.00,132.00,VWS V14.01,2014-01-13 14:30:00,
2014-01-13 09:35:00,42.5,35.5,30.20,SSE,167,0.0,5.0,76,0.00,,SCT,0.00,186.00,VWS V14.01,2014-01-13 14:35:00,
2014-01-13 09:40:00,42.7,36.0,30.19,South,173,2.0,5.0,77,0.00,,SCT,0.00,105.00,VWS V14.01,2014-01-13 14:40:00,
2014-01-13 09:45:00,42.7,35.7,30.19,South,173,2.0,5.0,76,0.00,,SCT,0.00,86.00,VWS V14.01,2014-01-13 14:45:00,
2014-01-13 09:50:00,42.5,35.5,30.19,South,185,0.0,5.0,76,0.00,,SCT,0.00,336.00,VWS V14.01,2014-01-13 14:50:00,
2014-01-13 09:55:00,42.9,36.5,30.18,South,185,1.0,4.0,78,0.00,,SCT,0.00,332.00,VWS V14.01,2014-01-13 14:55:00,
2014-01-13 10:00:00,43.4,36.3,30.18,South,185,0.0,4.0,76,0.00,,SCT,0.00,346.00,VWS V14.01,2014-01-13 15:00:00,
2014-01-13 10:05:00,44.1,36.7,30.18,South,185,0.0,4.0,75,0.00,,SCT,0.00,353.00,VWS V14.01,2014-01-13 15:05:00,
2014-01-13 10:10:00,45.0,36.9,30.18,SSE,160,4.0,4.0,73,0.00,,SCT,0.00,380.00,VWS V14.01,2014-01-13 15:10:00,
2014-01-13 10:15:00,45.5,37.0,30.18,SSE,160,0.0,4.0,72,0.00,,SCT,0.00,304.00,VWS V14.01,2014-01-13 15:15:00,
2014-01-13 10:20:00,46.1,37.6,30.18,NNE,13,5.0,9.0,72,0.00,,SCT,0.00,420.00,VWS V14.01,2014-01-13 15:20:00,
2014-01-13 10:25:00,47.6,38.3,30.18,NNE,18,5.0,9.0,70,0.00,,SCT,0.00,411.00,VWS V14.01,2014-01-13 15:25:00,
2014-01-13 10:30:00,48.7,37.9,30.18,North,355,13.0,15.0,66,0.00,,SCT,0.00,448.00,VWS V14.01,2014-01-13 15:30:00,
2014-01-13 10:35:00,48.9,38.1,30.18,NNE,22,9.0,15.0,66,0.00,,SCT,0.00,207.00,VWS V14.01,2014-01-13 15:35:00,
2014-01-13 10:40:00,49.2,38.0,30.17,NNE,22,8.0,15.0,65,0.00,,SCT,0.00,561.00,VWS V14.01,2014-01-13 15:40:00,
2014-01-13 10:45:00,49.4,37.8,30.17,NNE,14,12.0,15.0,64,0.00,,SCT,0.00,169.00,VWS V14.01,2014-01-13 15:45:00,
2014-01-13 10:50:00,49.2,37.6,30.17,NNE,19,10.0,15.0,64,0.00,,SCT,0.00,193.00,VWS V14.01,2014-01-13 15:50:00,
2014-01-13 10:55:00,49.1,37.9,30.17,NNE,29,12.0,15.0,65,0.00,,SCT,0.00,225.00,VWS V14.01,2014-01-13 15:55:00,
2014-01-13 11:00:00,49.4,38.1,30.16,NNE,27,7.0,15.0,65,0.00,,SCT,0.00,482.00,VWS V14.01,2014-01-13 16:00:00,
2014-01-13 11:05:00,50.1,38.4,30.16,NNE,28,7.0,15.0,64,0.00,,SCT,0.00,520.00,VWS V14.01,2014-01-13 16:05:00,
2014-01-13 11:10:00,50.8,38.7,30.16,NNE,30,8.0,15.0,63,0.00,,SCT,0.00,501.00,VWS V14.01,2014-01-13 16:10:00,
2014-01-13 11:15:00,51.4,38.8,30.16,North,5,11.0,15.0,62,0.00,,SCT,0.00,496.00,VWS V14.01,2014-01-13 16:15:00,
2014-01-13 11:20:00,51.8,38.8,30.15,NNE,12,4.0,15.0,61,0.00,,SCT,0.00,483.00,VWS V14.01,2014-01-13 16:20:00,
2014-01-13 11:25:00,52.1,39.1,30.15,NNE,24,9.0,16.0,61,0.00,,SCT,0.00,471.00,VWS V14.01,2014-01-13 16:25:00,
2014-01-13 11:30:00,52.5,39.0,30.14,North,9,14.0,17.0,60,0.00,,SCT,0.00,475.00,VWS V14.01,2014-01-13 16:30:00,
2014-01-13 11:35:00,52.9,39.0,30.14,NNW,348,5.0,17.0,59,0.00,,SCT,0.00,480.00,VWS V14.01,2014-01-13 16:35:00,
2014-01-13 11:40:00,53.5,39.5,30.13,NNW,348,4.0,17.0,59,0.00,,SCT,0.00,489.00,VWS V14.01,2014-01-13 16:40:00,
2014-01-13 11:45:00,54.0,40.0,30.14,North,360,4.0,17.0,59,0.00,,SCT,0.00,478.00,VWS V14.01,2014-01-13 16:45:00,
2014-01-13 11:50:00,54.5,40.0,30.13,NNE,30,7.0,17.0,58,0.00,,SCT,0.00,468.00,VWS V14.01,2014-01-13 16:50:00,
2014-01-13 11:55:00,54.8,39.9,30.12,NNE,19,14.0,17.0,57,0.00,,SCT,0.00,441.00,VWS V14.01,2014-01-13 16:55:00,
2014-01-13 12:00:00,55.2,39.8,30.12,North,355,12.0,17.0,56,0.00,,SCT,0.00,390.00,VWS V14.01,2014-01-13 17:00:00,
2014-01-13 12:05:00,55.2,39.8,30.12,NNE,15,13.0,22.0,56,0.00,,SCT,0.00,350.00,VWS V14.01,2014-01-13 17:05:00,
2014-01-13 12:10:00,55.1,39.2,30.11,NNE,19,18.0,26.0,55,0.00,,SCT,0.00,367.00,VWS V14.01,2014-01-13 17:10:00,
2014-01-13 12:15:00,55.2,39.3,30.11,NNE,14,14.0,26.0,55,0.00,,SCT,0.00,345.00,VWS V14.01,2014-01-13 17:15:00,
2014-01-13 12:20:00,55.3,39.4,30.11,NE,35,17.0,26.0,55,0.00,,SCT,0.00,575.00,VWS V14.01,2014-01-13 17:20:00,
2014-01-13 12:25:00,55.5,39.6,30.11,North,349,10.0,28.0,55,0.00,,SCT,0.00,490.00,VWS V14.01,2014-01-13 17:25:00,
2014-01-13 12:30:00,55.8,39.4,30.10,NNE,13,20.0,28.0,54,0.00,,SCT,0.00,506.00,VWS V14.01,2014-01-13 17:30:00,
2014-01-13 12:35:00,56.2,39.8,30.10,North,5,14.0,28.0,54,0.00,,SCT,0.00,334.00,VWS V14.01,2014-01-13 17:35:00,
2014-01-13 12:40:00,56.2,39.8,30.10,North,5,14.0,28.0,54,0.00,,SCT,0.00,461.00,VWS V14.01,2014-01-13 17:40:00,
2014-01-13 12:45:00,56.4,40.0,30.09,North,5,6.0,28.0,54,0.00,,SCT,0.00,487.00,VWS V14.01,2014-01-13 17:45:00,
2014-01-13 12:50:00,56.9,40.0,30.08,NNW,340,7.0,28.0,53,0.00,,SCT,0.00,431.00,VWS V14.01,2014-01-13 17:50:00,
2014-01-13 12:55:00,57.2,39.8,30.08,North,9,10.0,16.0,52,0.00,,SCT,0.00,385.00,VWS V14.01,2014-01-13 17:55:00,
2014-01-13 13:00:00,57.3,39.8,30.08,North,355,8.0,16.0,52,0.00,,SCT,0.00,313.00,VWS V14.01,2014-01-13 18:00:00,
2014-01-13 13:05:00,57.2,39.8,30.08,NNE,16,17.0,20.0,52,0.00,,SCT,0.00,334.00,VWS V14.01,2014-01-13 18:05:00,
2014-01-13 13:10:00,57.2,39.8,30.08,North,351,10.0,20.0,52,0.00,,SCT,0.00,438.00,VWS V14.01,2014-01-13 18:10:00,
2014-01-13 13:15:00,57.5,40.5,30.08,NNW,337,6.0,20.0,53,0.00,,SCT,0.00,323.00,VWS V14.01,2014-01-13 18:15:00,
2014-01-13 13:20:00,57.8,40.3,30.08,NNW,333,14.0,20.0,52,0.00,,SCT,0.00,202.00,VWS V14.01,2014-01-13 18:20:00,
2014-01-13 13:25:00,57.9,40.4,30.08,NNW,344,10.0,20.0,52,0.00,,SCT,0.00,396.00,VWS V14.01,2014-01-13 18:25:00,
2014-01-13 13:30:00,58.0,40.0,30.07,NNE,22,8.0,21.0,51,0.00,,SCT,0.00,274.00,VWS V14.01,2014-01-13 18:30:00,
2014-01-13 13:35:00,58.3,40.3,30.07,North,355,8.0,21.0,51,0.00,,SCT,0.00,429.00,VWS V14.01,2014-01-13 18:35:00,
2014-01-13 13:40:00,58.5,40.5,30.07,North,9,13.0,21.0,51,0.00,,SCT,0.00,420.00,VWS V14.01,2014-01-13 18:40:00,
2014-01-13 13:45:00,58.5,40.5,30.07,NNE,21,10.0,21.0,51,0.00,,SCT,0.00,330.00,VWS V14.01,2014-01-13 18:45:00,
2014-01-13 13:50:00,58.5,40.5,30.07,NE,37,13.0,21.0,51,0.00,,SCT,0.00,343.00,VWS V14.01,2014-01-13 18:50:00,
2014-01-13 13:55:00,58.6,40.5,30.07,North,355,11.0,16.0,51,0.00,,SCT,0.00,322.00,VWS V14.01,2014-01-13 18:55:00,
2014-01-13 14:00:00,58.9,40.8,30.07,NNW,336,10.0,16.0,51,0.00,,SCT,0.00,406.00,VWS V14.01,2014-01-13 19:00:00,
2014-01-13 14:05:00,59.0,39.9,30.06,NNW,331,11.0,16.0,49,0.00,,SCT,0.00,260.00,VWS V14.01,2014-01-13 19:05:00,
2014-01-13 14:10:00,59.2,40.6,30.07,NNE,15,11.0,16.0,50,0.00,,SCT,0.00,336.00,VWS V14.01,2014-01-13 19:10:00,
2014-01-13 14:15:00,59.1,40.0,30.06,NNE,24,9.0,17.0,49,0.00,,SCT,0.00,258.00,VWS V14.01,2014-01-13 19:15:00,
2014-01-13 14:20:00,59.1,40.5,30.06,NNE,22,13.0,21.0,50,0.00,,SCT,0.00,209.00,VWS V14.01,2014-01-13 19:20:00,
2014-01-13 14:25:00,59.0,40.4,30.08,NNE,24,10.0,21.0,50,0.00,,SCT,0.00,178.00,VWS V14.01,2014-01-13 19:25:00,
2014-01-13 14:30:00,58.8,39.7,30.07,North,5,13.0,23.0,49,0.00,,SCT,0.00,172.00,VWS V14.01,2014-01-13 19:30:00,
2014-01-13 14:35:00,58.8,40.2,30.05,North,5,5.0,23.0,50,0.00,,SCT,0.00,186.00,VWS V14.01,2014-01-13 19:35:00,
2014-01-13 14:40:00,58.9,39.8,30.05,NE,36,7.0,23.0,49,0.00,,SCT,0.00,181.00,VWS V14.01,2014-01-13 19:40:00,
2014-01-13 14:45:00,59.0,40.4,30.05,NNE,27,6.0,23.0,50,0.00,,SCT,0.00,165.00,VWS V14.01,2014-01-13 19:45:00,
2014-01-13 14:50:00,59.2,40.1,30.06,North,5,7.0,23.0,49,0.00,,SCT,0.00,144.00,VWS V14.01,2014-01-13 19:50:00,
2014-01-13 14:55:00,59.2,40.1,30.06,North,355,6.0,15.0,49,0.00,,SCT,0.00,163.00,VWS V14.01,2014-01-13 19:55:00,
2014-01-13 15:00:00,59.3,39.6,30.06,NNW,341,11.0,16.0,48,0.00,,SCT,0.00,264.00,VWS V14.01,2014-01-13 20:00:00,
2014-01-13 15:05:00,59.6,40.4,30.07,ENE,67,11.0,16.0,49,0.00,,SCT,0.00,213.00,VWS V14.01,2014-01-13 20:05:00,
2014-01-13 15:10:00,60.0,39.2,30.08,NNE,26,18.0,23.0,46,0.00,,SCT,0.00,165.00,VWS V14.01,2014-01-13 20:10:00,
2014-01-13 15:15:00,60.0,39.2,30.08,NNW,342,16.0,23.0,46,0.00,,SCT,0.00,134.00,VWS V14.01,2014-01-13 20:15:00,
2014-01-13 15:20:00,59.9,39.1,30.08,NNE,16,16.0,23.0,46,0.00,,SCT,0.00,267.00,VWS V14.01,2014-01-13 20:20:00,
2014-01-13 15:25:00,59.9,39.1,30.07,North,360,15.0,23.0,46,0.00,,SCT,0.00,169.00,VWS V14.01,2014-01-13 20:25:00,
2014-01-13 15:30:00,59.8,39.0,30.07,North,355,11.0,23.0,46,0.00,,SCT,0.00,127.00,VWS V14.01,2014-01-13 20:30:00,
2014-01-13 15:35:00,59.7,38.9,30.07,NNW,343,15.0,23.0,46,0.00,,SCT,0.00,97.00,VWS V14.01,2014-01-13 20:35:00,
2014-01-13 15:40:00,59.6,38.8,30.06,NNE,13,6.0,23.0,46,0.00,,SCT,0.00,91.00,VWS V14.01,2014-01-13 20:40:00,
2014-01-13 15:45:00,59.5,38.7,30.07,North,11,11.0,23.0,46,0.00,,SCT,0.00,104.00,VWS V14.01,2014-01-13 20:45:00,
2014-01-13 15:50:00,59.5,38.7,30.07,NE,40,8.0,23.0,46,0.00,,SCT,0.00,91.00,VWS V14.01,2014-01-13 20:50:00,
2014-01-13 15:55:00,59.4,38.6,30.07,North,5,12.0,18.0,46,0.00,,SCT,0.00,134.00,VWS V14.01,2014-01-13 20:55:00,
2014-01-13 16:00:00,59.4,39.2,30.08,North,9,20.0,20.0,47,0.00,,SCT,0.00,105.00,VWS V14.01,2014-01-13 21:00:00,
2014-01-13 16:05:00,59.4,38.6,30.07,North,5,13.0,20.0,46,0.00,,SCT,0.00,100.00,VWS V14.01,2014-01-13 21:05:00,
2014-01-13 16:10:00,59.4,39.2,30.07,North,5,14.0,20.0,47,0.00,,SCT,0.00,90.00,VWS V14.01,2014-01-13 21:10:00,
2014-01-13 16:15:00,59.4,39.2,30.07,North,9,9.0,20.0,47,0.00,,SCT,0.00,63.00,VWS V14.01,2014-01-13 21:15:00,
2014-01-13 16:20:00,59.3,39.1,30.07,NNE,22,10.0,20.0,47,0.00,,SCT,0.00,56.00,VWS V14.01,2014-01-13 21:20:00,
2014-01-13 16:25:00,59.1,39.5,30.07,North,5,8.0,20.0,48,0.00,,SCT,0.00,51.00,VWS V14.01,2014-01-13 21:25:00,
2014-01-13 16:30:00,59.0,39.4,30.07,NNE,21,9.0,20.0,48,0.00,,SCT,0.00,44.00,VWS V14.01,2014-01-13 21:30:00,
2014-01-13 16:35:00,58.9,39.3,30.08,NNE,20,11.0,20.0,48,0.00,,SCT,0.00,35.00,VWS V14.01,2014-01-13 21:35:00,
2014-01-13 16:40:00,58.9,39.3,30.06,NNW,348,9.0,20.0,48,0.00,,SCT,0.00,30.00,VWS V14.01,2014-01-13 21:40:00,
2014-01-13 16:45:00,58.8,39.2,30.06,North,11,6.0,20.0,48,0.00,,SCT,0.00,25.00,VWS V14.01,2014-01-13 21:45:00,
2014-01-13 16:50:00,58.7,39.1,30.05,NNW,328,4.0,20.0,48,0.00,,SCT,0.00,16.00,VWS V14.01,2014-01-13 21:50:00,
2014-01-13 16:55:00,58.6,39.5,30.04,NNW,328,9.0,13.0,49,0.00,,SCT,0.00,14.00,VWS V14.01,2014-01-13 21:55:00,
2014-01-13 17:00:00,58.7,39.6,30.05,North,355,5.0,20.0,49,0.00,,SCT,0.00,16.00,VWS V14.01,2014-01-13 22:00:00,
2014-01-13 17:08:00,58.5,39.4,30.07,North,9,9.0,16.0,49,0.00,,SCT,0.00,0.00,VWS V14.01,2014-01-13 22:08:00,
2014-01-13 17:13:00,58.4,39.3,30.06,NNE,19,5.0,16.0,49,0.00,,SCT,0.00,0.00,VWS V14.01,2014-01-13 22:13:00,
2014-01-13 17:18:00,58.3,39.8,30.05,NNW,334,5.0,16.0,50,0.00,,SCT,0.00,0.00,VWS V14.01,2014-01-13 22:18:00,
2014-01-13 17:23:00,58.2,39.7,30.06,NNW,339,0.0,16.0,50,0.00,,SCT,0.00,0.00,VWS V14.01,2014-01-13 22:23:00,
2014-01-13 17:28:00,58.0,39.5,30.06,NNW,339,6.0,16.0,50,0.00,,SCT,0.00,0.00,VWS V14.01,2014-01-13 22:28:00,
2014-01-13 17:33:00,57.9,39.4,30.06,North,355,4.0,16.0,50,0.00,,SCT,0.00,0.00,VWS V14.01,2014-01-13 22:33:00,
2014-01-13 17:38:00,57.8,39.3,30.06,NW,323,7.0,16.0,50,0.00,,SCT,0.00,0.00,VWS V14.01,2014-01-13 22:38:00,
2014-01-13 17:43:00,57.7,39.7,30.05,NW,323,4.0,16.0,51,0.00,,SCT,0.00,0.00,VWS V14.01,2014-01-13 22:43:00,
2014-01-13 17:48:00,57.5,39.5,30.05,WNW,295,0.0,16.0,51,0.00,,SCT,0.00,0.00,VWS V14.01,2014-01-13 22:48:00,
2014-01-13 17:53:00,57.4,39.4,30.04,NNW,333,4.0,10.0,51,0.00,,SCT,0.00,0.00,VWS V14.01,2014-01-13 22:53:00,
2014-01-13 17:58:00,57.3,39.8,30.04,NNW,328,5.0,10.0,52,0.00,,SCT,0.00,0.00,VWS V14.01,2014-01-13 22:58:00,
2014-01-13 18:00:00,57.4,39.4,30.04,NW,320,9.0,16.0,51,0.00,,SCT,0.00,0.00,VWS V14.01,2014-01-13 23:00:00,
2014-01-13 18:03:00,57.1,39.7,30.05,NNW,340,9.0,12.0,52,0.00,,SCT,0.00,0.00,VWS V14.01,2014-01-13 23:03:00,
2014-01-13 18:08:00,57.1,39.7,30.05,NNW,339,3.0,12.0,52,0.00,,SCT,0.00,0.00,VWS V14.01,2014-01-13 23:08:00,
2014-01-13 18:13:00,57.1,39.7,30.05,North,5,3.0,12.0,52,0.00,,SCT,0.00,0.00,VWS V14.01,2014-01-13 23:13:00,
2014-01-13 18:18:00,57.0,39.6,30.04,North,360,8.0,12.0,52,0.00,,SCT,0.00,0.00,VWS V14.01,2014-01-13 23:18:00,
2014-01-13 18:23:00,56.9,39.5,30.04,North,349,3.0,12.0,52,0.00,,SCT,0.00,0.00,VWS V14.01,2014-01-13 23:23:00,
2014-01-13 18:28:00,56.9,40.0,30.05,North,355,3.0,12.0,53,0.00,,SCT,0.00,0.00,VWS V14.01,2014-01-13 23:28:00,
2014-01-13 18:33:00,56.8,39.9,30.05,NNW,328,2.0,12.0,53,0.00,,SCT,0.00,0.00,VWS V14.01,2014-01-13 23:33:00,
2014-01-13 18:38:00,56.8,39.9,30.05,North,10,4.0,12.0,53,0.00,,SCT,0.00,0.00,VWS V14.01,2014-01-13 23:38:00,
2014-01-13 18:43:00,56.7,39.8,30.05,North,360,3.0,12.0,53,0.00,,SCT,0.00,0.00,VWS V14.01,2014-01-13 23:43:00,
2014-01-13 18:48:00,56.6,39.7,30.05,North,355,2.0,12.0,53,0.00,,SCT,0.00,0.00,VWS V14.01,2014-01-13 23:48:00,
2014-01-13 18:53:00,56.4,39.5,30.05,North,5,2.0,6.0,53,0.00,,SCT,0.00,0.00,VWS V14.01,2014-01-13 23:53:00,
2014-01-13 18:58:00,56.4,39.5,30.05,NE,34,7.0,11.0,53,0.00,,SCT,0.00,0.00,VWS V14.01,2014-01-13 23:58:00,
2014-01-13 19:00:00,56.5,39.6,30.05,North,355,2.0,12.0,53,0.00,,SCT,0.00,0.00,VWS V14.01,2014-01-14 00:00:00,
2014-01-13 19:03:00,56.3,39.4,30.05,NNE,22,0.0,11.0,53,0.00,,SCT,0.00,0.00,VWS V14.01,2014-01-14 00:03:00,
2014-01-13 19:08:00,56.1,39.7,30.05,NE,34,4.0,11.0,54,0.00,,SCT,0.00,0.00,VWS V14.01,2014-01-14 00:08:00,
2014-01-13 19:13:00,55.9,39.5,30.04,NE,40,0.0,11.0,54,0.00,,SCT,0.00,0.00,VWS V14.01,2014-01-14 00:13:00,
2014-01-13 19:18:00,55.7,39.3,30.05,North,360,3.0,11.0,54,0.00,,SCT,0.00,0.00,VWS V14.01,2014-01-14 00:18:00,
2014-01-13 19:23:00,55.5,39.6,30.05,North,9,0.0,11.0,55,0.00,,SCT,0.00,0.00,VWS V14.01,2014-01-14 00:23:00,
2014-01-13 19:28:00,55.4,39.5,30.05,North,9,0.0,11.0,55,0.00,,SCT,0.00,0.00,VWS V14.01,2014-01-14 00:28:00,
2014-01-13 19:33:00,55.2,39.8,30.06,North,11,3.0,11.0,56,0.00,,SCT,0.00,0.00,VWS V14.01,2014-01-14 00:33:00,
2014-01-13 19:38:00,55.0,39.6,30.07,NE,42,3.0,11.0,56,0.00,,SCT,0.00,0.00,VWS V14.01,2014-01-14 00:38:00,
2014-01-13 19:43:00,55.0,39.6,30.06,NNE,30,2.0,11.0,56,0.00,,SCT,0.00,0.00,VWS V14.01,2014-01-14 00:43:00,
2014-01-13 19:48:00,55.0,39.6,30.05,NE,46,0.0,11.0,56,0.00,,SCT,0.00,0.00,VWS V14.01,2014-01-14 00:48:00,
2014-01-13 19:53:00,54.9,39.5,30.04,NNE,31,0.0,1.0,56,0.00,,SCT,0.00,0.00,VWS V14.01,2014-01-14 00:53:00,
2014-01-13 19:58:00,54.9,39.5,30.04,NNE,22,2.0,3.0,56,0.00,,SCT,0.00,0.00,VWS V14.01,2014-01-14 00:58:00,
2014-01-13 20:00:00,55.0,39.6,30.04,NNE,31,0.0,11.0,56,0.00,,SCT,0.00,0.00,VWS V14.01,2014-01-14 01:00:00,
2014-01-13 20:03:00,54.9,39.5,30.05,ENE,57,1.0,4.0,56,0.00,,SCT,0.00,0.00,VWS V14.01,2014-01-14 01:03:00,
2014-01-13 20:08:00,54.9,39.5,30.05,ENE,61,1.0,4.0,56,0.00,,SCT,0.00,0.00,VWS V14.01,2014-01-14 01:08:00,
2014-01-13 20:13:00,54.9,40.0,30.06,ENE,77,0.0,5.0,57,0.00,,SCT,0.00,0.00,VWS V14.01,2014-01-14 01:13:00,
2014-01-13 20:18:00,54.8,39.9,30.05,ENE,77,0.0,5.0,57,0.00,,SCT,0.00,0.00,VWS V14.01,2014-01-14 01:18:00,
2014-01-13 20:23:00,54.7,39.8,30.05,NE,54,3.0,5.0,57,0.00,,SCT,0.00,0.00,VWS V14.01,2014-01-14 01:23:00,
2014-01-13 20:28:00,54.7,39.8,30.05,NE,35,3.0,5.0,57,0.00,,SCT,0.00,0.00,VWS V14.01,2014-01-14 01:28:00,
2014-01-13 20:33:00,54.6,39.7,30.05,ENE,71,0.0,5.0,57,0.00,,SCT,0.00,0.00,VWS V14.01,2014-01-14 01:33:00,
2014-01-13 20:38:00,54.5,39.6,30.05,ENE,71,0.0,5.0,57,0.00,,SCT,0.00,0.00,VWS V14.01,2014-01-14 01:38:00,
2014-01-13 20:43:00,54.4,40.0,30.05,ENE,61,0.0,5.0,58,0.00,,SCT,0.00,0.00,VWS V14.01,2014-01-14 01:43:00,
2014-01-13 20:48:00,54.3,39.8,30.04,ENE,62,0.0,5.0,58,0.00,,SCT,0.00,0.00,VWS V14.01,2014-01-14 01:48:00,
2014-01-13 20:53:00,54.2,39.8,30.04,ENE,61,0.0,0.0,58,0.00,,SCT,0.00,0.00,VWS V14.01,2014-01-14 01:53:00,
2014-01-13 20:58:00,54.1,40.1,30.04,ENE,57,0.0,3.0,59,0.00,,SCT,0.00,0.00,VWS V14.01,2014-01-14 01:58:00,
2014-01-13 21:00:00,54.2,39.8,30.04,ENE,61,0.0,5.0,58,0.00,,SCT,0.00,0.00,VWS V14.01,2014-01-14 02:00:00,
2014-01-13 21:03:00,54.1,40.1,30.04,ENE,57,0.0,3.0,59,0.00,,SCT,0.00,0.00,VWS V14.01,2014-01-14 02:03:00,
2014-01-13 21:08:00,54.2,40.2,30.04,NNE,28,0.0,9.0,59,0.00,,SCT,0.00,0.00,VWS V14.01,2014-01-14 02:08:00,
2014-01-13 21:13:00,54.2,40.2,30.03,NE,43,0.0,9.0,59,0.00,,SCT,0.00,0.00,VWS V14.01,2014-01-14 02:13:00,
2014-01-13 21:18:00,54.1,40.1,30.02,North,355,0.0,9.0,59,0.00,,SCT,0.00,0.00,VWS V14.01,2014-01-14 02:18:00,
2014-01-13 21:23:00,54.0,40.0,30.02,NW,318,0.0,9.0,59,0.00,,SCT,0.00,0.00,VWS V14.01,2014-01-14 02:23:00,
2014-01-13 21:28:00,54.0,40.0,30.02,North,360,0.0,9.0,59,0.00,,SCT,0.00,0.00,VWS V14.01,2014-01-14 02:28:00,
2014-01-13 21:33:00,54.1,40.1,30.03,NNE,20,4.0,9.0,59,0.00,,SCT,0.00,0.00,VWS V14.01,2014-01-14 02:33:00,
2014-01-13 21:37:00,54.1,40.1,30.02,NNE,27,6.0,9.0,59,0.00,,SCT,0.00,0.00,VWS V14.01,2014-01-14 02:37:00,
2014-01-13 21:42:00,54.2,40.2,30.02,NNW,336,5.0,10.0,59,0.00,,SCT,0.00,0.00,VWS V14.01,2014-01-14 02:42:00,
2014-01-13 21:47:00,54.3,40.3,30.03,NNE,12,10.0,13.0,59,0.00,,SCT,0.00,0.00,VWS V14.01,2014-01-14 02:47:00,
2014-01-13 21:52:00,54.5,40.0,30.02,North,360,4.0,16.0,58,0.00,,SCT,0.00,0.00,VWS V14.01,2014-01-14 02:52:00,
2014-01-13 21:57:00,54.6,40.1,30.02,NNW,343,11.0,16.0,58,0.00,,SCT,0.00,0.00,VWS V14.01,2014-01-14 02:57:00,
2014-01-13 22:00:00,54.4,40.0,30.03,NNE,30,10.0,13.0,58,0.00,,SCT,0.00,0.00,VWS V14.01,2014-01-14 03:00:00,
2014-01-13 22:02:00,54.6,40.1,30.03,NNE,17,16.0,17.0,58,0.00,,SCT,0.00,0.00,VWS V14.01,2014-01-14 03:02:00,
2014-01-13 22:07:00,54.7,40.2,30.03,NNW,329,15.0,17.0,58,0.00,,SCT,0.00,0.00,VWS V14.01,2014-01-14 03:07:00,
2014-01-13 22:12:00,54.7,40.2,30.03,NE,34,8.0,17.0,58,0.00,,SCT,0.00,0.00,VWS V14.01,2014-01-14 03:12:00,
2014-01-13 22:17:00,54.6,40.1,30.03,NE,34,16.0,20.0,58,0.00,,SCT,0.00,0.00,VWS V14.01,2014-01-14 03:17:00,
2014-01-13 22:22:00,54.6,40.1,30.03,NNE,19,7.0,20.0,58,0.00,,SCT,0.00,0.00,VWS V14.01,2014-01-14 03:22:00,
2014-01-13 22:27:00,54.6,40.1,30.03,NNE,15,10.0,21.0,58,0.00,,SCT,0.00,0.00,VWS V14.01,2014-01-14 03:27:00,
2014-01-13 22:32:00,54.8,40.3,30.03,NNE,18,14.0,21.0,58,0.00,,SCT,0.00,0.00,VWS V14.01,2014-01-14 03:32:00,
2014-01-13 22:37:00,54.8,40.8,30.02,North,355,17.0,21.0,59,0.00,,SCT,0.00,0.00,VWS V14.01,2014-01-14 03:37:00,
2014-01-13 22:42:00,54.6,41.0,30.03,North,5,9.0,21.0,60,0.00,,SCT,0.00,0.00,VWS V14.01,2014-01-14 03:42:00,
2014-01-13 22:47:00,54.3,42.0,30.02,NNE,19,9.0,21.0,63,0.00,,SCT,0.00,0.00,VWS V14.01,2014-01-14 03:47:00,
2014-01-13 22:52:00,54.0,42.1,30.02,North,5,15.0,20.0,64,0.00,,SCT,0.00,0.00,VWS V14.01,2014-01-14 03:52:00,
2014-01-13 22:57:00,53.7,42.2,30.03,NNW,346,22.0,22.0,65,0.00,,SCT,0.00,0.00,VWS V14.01,2014-01-14 03:57:00,
2014-01-13 23:00:00,54.1,41.8,30.02,North,360,7.0,21.0,63,0.00,,SCT,0.00,0.00,VWS V14.01,2014-01-14 04:00:00,
2014-01-13 23:02:00,53.4,42.7,30.03,North,360,13.0,22.0,67,0.00,,SCT,0.00,0.00,VWS V14.01,2014-01-14 04:02:00,
2014-01-13 23:07:00,53.0,42.7,30.02,NNE,13,10.0,22.0,68,0.00,,SCT,0.00,0.00,VWS V14.01,2014-01-14 04:07:00,
2014-01-13 23:12:00,52.6,42.7,30.01,NNE,32,8.0,22.0,69,0.00,,SCT,0.00,0.00,VWS V14.01,2014-01-14 04:12:00,
2014-01-13 23:17:00,52.3,42.8,30.01,North,5,11.0,22.0,70,0.00,,SCT,0.00,0.00,VWS V14.01,2014-01-14 04:17:00,
2014-01-13 23:22:00,52.0,43.3,30.01,NNE,14,13.0,22.0,72,0.00,,SCT,0.00,0.00,VWS V14.01,2014-01-14 04:22:00,
2014-01-13 23:27:00,51.9,43.2,30.01,NNE,18,11.0,22.0,72,0.00,,SCT,0.00,0.00,VWS V14.01,2014-01-14 04:27:00,
2014-01-13 23:32:00,51.8,43.4,30.01,North,5,15.0,22.0,73,0.00,,SCT,0.00,0.00,VWS V14.01,2014-01-14 04:32:00,
2014-01-13 23:37:00,51.7,43.3,30.01,NNE,21,9.0,22.0,73,0.00,,SCT,0.00,0.00,VWS V14.01,2014-01-14 04:37:00,
2014-01-13 23:42:00,51.6,43.2,30.01,NNW,344,7.0,22.0,73,0.00,,SCT,0.00,0.00,VWS V14.01,2014-01-14 04:42:00,
2014-01-13 23:47:00,51.6,43.2,30.01,NNE,17,15.0,22.0,73,0.00,,SCT,0.00,0.00,VWS V14.01,2014-01-14 04:47:00,
2014-01-13 23:52:00,51.6,43.2,30.01,North,9,20.0,20.0,73,0.00,,SCT,0.00,0.00,VWS V14.01,2014-01-14 04:52:00,
2014-01-13 23:57:00,51.7,43.3,30.01,NNE,17,16.0,21.0,73,0.00,,SCT,0.00,0.00,VWS V14.01,2014-01-14 04:57:00,